Weather History for KBQK - February, 2013

Change the Weather History Date:

Sunday, February 17, 2013

  Actual Average (KSSI) Record (KSSI)
Temperature  
Mean Temperature 42 °F 55 °F  
Max Temperature 53 °F 64 °F 77 °F (1995)
Min Temperature 32 °F 46 °F 19 °F (1958)
Degree Days  
Heating Degree Days 22 10  
Month to date heating degree days 198  
Since 1 July heating degree days 1149  
Cooling Degree Days 0 0  
Month to date cooling degree days 0  
Year to date cooling degree days 3  
Moisture  
Dew Point 19 °F    
Average Humidity 46    
Maximum Humidity 87    
Minimum Humidity 16    
Precipitation  
Precipitation 0.00 in 0.13 in 2.33 in (1998)
Month to date precipitation 2.03  
Year to date precipitation 5.25  
Snow  
Snow 0.00 in - 0.00 in ()
Month to date snowfall  
Since 1 July snowfall  
Snow Depth -    
Sea Level Pressure  
Sea Level Pressure 30.27 in    
Wind  
Wind Speed 6 mph (WNW)    
Max Wind Speed 14 mph    
Max Gust Speed 22 mph    
Visibility 10 miles    
Events      
T = Trace of Precipitation, MM = Missing Value Source: NWS Daily Summary

Daily Weather History Graph

Daily Weather History Graph

Search for Another Location

Airport or City:

Trip Planner

Search our weather history database for the weather conditions in past years. The results will help you decide how hot, cold, wet, or windy it might be!

Date:

Astronomy

Feb. 17, 2013 Rise Set
Actual Time 7:05 AM EST 6:15 PM EST
Civil Twilight 6:40 AM EST 6:39 PM EST
Nautical Twilight 6:12 AM EST 7:08 PM EST
Astronomical Twilight 5:43 AM EST 7:36 PM EST
Moon 11:27 AM EST (2/17) 12:40 AM EST (2/17)
Length of Visible Light 11h 59m
Length of Day
11h 10m
Waxing Crescent, 49% of the Moon is Illuminated
Feb 17
Waxing Crescent
Feb 17
First Quarter
Feb 25
Full
Mar 4
Last Quarter
Mar 11
New

Hourly Weather History & Observations

Time (EST) Temp. Windchill Dew Point Humidity Pressure Visibility Wind Dir Wind Speed Gust Speed Precip Events Conditions
12:15 AM 41.0 °F 37.1 °F 19.4 °F 42% 30.16 in 10.0 mi West 5.8 mph - N/A   Clear
12:35 AM 41.0 °F 37.1 °F 19.4 °F 42% 30.16 in 10.0 mi WNW 5.8 mph - N/A   Clear
12:55 AM 41.0 °F 36.4 °F 19.4 °F 42% 30.16 in 10.0 mi WNW 6.9 mph - N/A   Clear
1:15 AM 39.2 °F 35.9 °F 19.4 °F 45% 30.17 in 10.0 mi West 4.6 mph - N/A   Clear
1:35 AM 37.4 °F 32.8 °F 21.2 °F 52% 30.17 in 10.0 mi West 5.8 mph - N/A   Clear
1:55 AM 37.4 °F 32.8 °F 19.4 °F 48% 30.17 in 10.0 mi West 5.8 mph - N/A   Clear
2:15 AM 37.4 °F 32.8 °F 21.2 °F 52% 30.17 in 10.0 mi West 5.8 mph - N/A   Clear
2:35 AM 37.4 °F 32.8 °F 21.2 °F 52% 30.17 in 10.0 mi WNW 5.8 mph - N/A   Clear
2:55 AM 35.6 °F 31.7 °F 21.2 °F 56% 30.17 in 10.0 mi WNW 4.6 mph - N/A   Clear
3:15 AM 35.6 °F 32.8 °F 21.2 °F 56% 30.18 in 10.0 mi West 3.5 mph - N/A   Clear
3:35 AM 35.6 °F 31.7 °F 23.0 °F 60% 30.19 in 10.0 mi West 4.6 mph - N/A   Clear
3:55 AM 35.6 °F 32.8 °F 23.0 °F 60% 30.19 in 10.0 mi WNW 3.5 mph - N/A   Clear
4:15 AM 35.6 °F 30.7 °F 23.0 °F 60% 30.19 in 10.0 mi WNW 5.8 mph - N/A   Clear
4:35 AM 35.6 °F 29.2 °F 21.2 °F 56% 30.19 in 10.0 mi WNW 8.1 mph - N/A   Clear
4:55 AM 35.6 °F 29.2 °F 21.2 °F 56% 30.20 in 10.0 mi WNW 8.1 mph - N/A   Clear
5:15 AM 35.6 °F 29.9 °F 21.2 °F 56% 30.20 in 10.0 mi NW 6.9 mph - N/A   Clear
5:35 AM 35.6 °F 31.7 °F 21.2 °F 56% 30.22 in 10.0 mi WNW 4.6 mph - N/A   Clear
5:55 AM 33.8 °F 28.6 °F 23.0 °F 65% 30.23 in 10.0 mi West 5.8 mph - N/A   Clear
6:15 AM 33.8 °F 29.6 °F 23.0 °F 65% 30.24 in 10.0 mi WNW 4.6 mph - N/A   Clear
6:35 AM 33.8 °F 29.6 °F 23.0 °F 65% 30.25 in 10.0 mi West 4.6 mph - N/A   Clear
6:55 AM 32.0 °F 28.7 °F 23.0 °F 69% 30.26 in 10.0 mi WSW 3.5 mph - N/A   Clear
7:15 AM 32.0 °F - 23.0 °F 69% 30.26 in 10.0 mi Calm Calm - N/A   Clear
7:35 AM 32.0 °F 27.5 °F 24.8 °F 75% 30.27 in 10.0 mi WSW 4.6 mph - N/A   Clear
7:55 AM 33.8 °F 29.6 °F 26.6 °F 75% 30.28 in 10.0 mi West 4.6 mph - N/A   Clear
8:15 AM 35.6 °F 29.9 °F 24.8 °F 65% 30.29 in 10.0 mi West 6.9 mph - N/A   Clear
8:35 AM 37.4 °F 32.1 °F 23.0 °F 56% 30.30 in 10.0 mi WNW 6.9 mph - N/A   Clear
8:55 AM 39.2 °F 33.0 °F 23.0 °F 52% 30.31 in 10.0 mi WNW 9.2 mph - N/A   Clear
9:15 AM 41.0 °F 35.8 °F 21.2 °F 45% 30.31 in 10.0 mi NW 8.1 mph - N/A   Clear
9:35 AM 41.0 °F 35.2 °F 19.4 °F 42% 30.31 in 10.0 mi NNW 9.2 mph 16.1 mph N/A   Clear
9:55 AM 42.8 °F 38.0 °F 19.4 °F 39% 30.31 in 10.0 mi NW 8.1 mph - N/A   Clear
10:15 AM 44.6 °F 39.2 °F 17.6 °F 34% 30.32 in 10.0 mi WNW 10.4 mph - N/A   Clear
10:35 AM 46.4 °F 40.7 °F 12.2 °F 25% 30.32 in 10.0 mi NNW 12.7 mph 18.4 mph N/A   Clear
10:55 AM 46.4 °F 40.4 °F 10.4 °F 23% 30.32 in 10.0 mi NW 13.8 mph 19.6 mph N/A   Clear
11:15 AM 46.4 °F 42.4 °F 12.2 °F 25% 30.32 in 10.0 mi North 8.1 mph 16.1 mph N/A   Clear
11:35 AM 48.2 °F - 12.2 °F 24% 30.32 in 10.0 mi WNW 10.4 mph 19.6 mph N/A   Clear
11:55 AM 50.0 °F - 12.2 °F 22% 30.32 in 10.0 mi WNW 9.2 mph 17.3 mph N/A   Clear
12:15 PM 51.8 °F - 10.4 °F 19% 30.31 in 10.0 mi NW 8.1 mph 16.1 mph N/A   Clear
12:35 PM 50.0 °F - 10.4 °F 20% 30.30 in 10.0 mi WNW 11.5 mph 16.1 mph N/A   Clear
12:55 PM 51.8 °F - 8.6 °F 18% 30.30 in 10.0 mi WNW 12.7 mph 18.4 mph N/A   Clear
1:15 PM 51.8 °F - 10.4 °F 19% 30.29 in 10.0 mi WNW 8.1 mph 16.1 mph N/A   Clear
1:35 PM 53.6 °F - 10.4 °F 18% 30.28 in 10.0 mi WNW 9.2 mph 17.3 mph N/A   Clear
1:55 PM 53.6 °F - 8.6 °F 16% 30.27 in 10.0 mi NW 13.8 mph 17.3 mph N/A   Clear
2:15 PM 53.6 °F - 10.4 °F 18% 30.27 in 10.0 mi West 10.4 mph 16.1 mph N/A   Clear
2:35 PM 53.6 °F - 10.4 °F 18% 30.26 in 10.0 mi WNW 9.2 mph - N/A   Clear
2:55 PM 53.6 °F - 12.2 °F 19% 30.26 in 10.0 mi West 8.1 mph 17.3 mph N/A   Clear
3:15 PM 53.6 °F - 12.2 °F 19% 30.26 in 10.0 mi West 12.7 mph 17.3 mph N/A   Clear
3:35 PM 53.6 °F - 12.2 °F 19% 30.26 in 10.0 mi WNW 10.4 mph 20.7 mph N/A   Clear
3:55 PM 53.6 °F - 12.2 °F 19% 30.26 in 10.0 mi West 12.7 mph 18.4 mph N/A   Clear
4:15 PM 53.6 °F - 12.2 °F 19% 30.26 in 10.0 mi West 12.7 mph 18.4 mph N/A   Clear
4:35 PM 53.6 °F - 12.2 °F 19% 30.26 in 10.0 mi WNW 9.2 mph 18.4 mph N/A   Clear
4:55 PM 53.6 °F - 12.2 °F 19% 30.26 in 10.0 mi West 10.4 mph 21.9 mph N/A   Clear
5:15 PM 51.8 °F - 14.0 °F 22% 30.27 in 10.0 mi NW 6.9 mph - N/A   Clear
5:35 PM 51.8 °F - 14.0 °F 22% 30.27 in 10.0 mi WNW 4.6 mph - N/A   Clear
5:55 PM 50.0 °F - 14.0 °F 24% 30.28 in 10.0 mi WNW 5.8 mph - N/A   Clear
6:15 PM 48.2 °F - 15.8 °F 27% 30.29 in 10.0 mi West 3.5 mph - N/A   Clear
6:35 PM 46.4 °F - 17.6 °F 32% 30.29 in 10.0 mi Calm Calm - N/A   Clear
6:55 PM 42.8 °F - 21.2 °F 42% 30.30 in 10.0 mi Calm Calm - N/A   Clear
7:15 PM 41.0 °F - 23.0 °F 49% 30.31 in 10.0 mi Calm Calm - N/A   Clear
7:35 PM 41.0 °F - 23.0 °F 49% 30.32 in 10.0 mi Calm Calm - N/A   Clear
7:55 PM 37.4 °F - 26.6 °F 65% 30.32 in 10.0 mi Calm Calm - N/A   Clear
8:15 PM 37.4 °F - 24.8 °F 60% 30.33 in 10.0 mi Calm Calm - N/A   Clear
8:35 PM 37.4 °F - 26.6 °F 65% 30.33 in 10.0 mi Calm Calm - N/A   Clear
8:55 PM 35.6 °F - 24.8 °F 65% 30.34 in 10.0 mi Calm Calm - N/A   Clear
9:15 PM 35.6 °F - 28.4 °F 75% 30.35 in 10.0 mi Calm Calm - N/A   Clear
9:35 PM 33.8 °F - 26.6 °F 75% 30.35 in 10.0 mi Calm Calm - N/A   Clear
9:55 PM 33.8 °F - 28.4 °F 81% 30.36 in 10.0 mi Calm Calm - N/A   Clear
10:15 PM 33.8 °F - 26.6 °F 75% 30.36 in 10.0 mi Calm Calm - N/A   Clear
10:35 PM 32.0 °F - 26.6 °F 80% 30.37 in 10.0 mi Calm Calm - N/A   Clear
10:55 PM 33.8 °F - 26.6 °F 75% 30.37 in 10.0 mi Calm Calm - N/A   Clear
11:15 PM 33.8 °F - 28.4 °F 81% 30.37 in 10.0 mi Calm Calm - N/A   Clear
11:35 PM 33.8 °F - 28.4 °F 81% 30.37 in 10.0 mi Calm Calm - N/A   Clear
11:55 PM 32.0 °F - 28.4 °F 87% 30.37 in 10.0 mi Calm Calm - N/A   Clear